Location: MAS Eagle Lake Observatory
(44.8103°N, 93.9397°W)
Time: 07:33:07
(UTC-06:00)

ISS - Visible Passes

Search period start: 11 December 2017 00:00
Search period end: 21 December 2017 00:00
Orbit: 402 x 407 km, 51.6° (Epoch: 11 December)

Date Brightness Start Highest point End Pass type
(mag) Time Alt. Az. Time Alt. Az. Time Alt. Az.
11 Dec -2.7 17:21:01 10° NW 17:23:58 29° NNE 17:26:30 12° ENE visible
11 Dec -1.9 18:57:25 10° WNW 18:59:11 29° WNW 18:59:11 29° WNW visible
12 Dec -3.8 18:05:11 10° NW 18:08:27 63° NNE 18:09:25 40° E visible
13 Dec -3.3 17:12:57 10° NW 17:16:07 42° NNE 17:19:15 10° E visible
13 Dec -2.4 18:49:31 10° WNW 18:52:32 35° SW 18:52:32 35° SW visible
14 Dec -3.5 17:57:06 10° WNW 18:00:23 65° SSW 18:03:14 13° SE visible
15 Dec -3.9 17:04:48 10° WNW 17:08:06 75° NNE 17:11:23 10° ESE visible
15 Dec -0.9 18:42:03 10° W 18:44:14 17° SW 18:46:24 10° S visible
16 Dec -1.7 17:49:12 10° WNW 17:52:07 29° SW 17:55:00 10° SSE visible
18 Dec -0.5 17:41:55 10° W 17:43:40 14° SW 17:45:24 10° SSW visible
